Regional Weather Roundup
Issued by NWS

Home | Current Version | Previous Version | Text Only | Print | Product List | Glossary On
Versions: 1 2 3 4 5 6 7 8 9 10 11 12 13 14 15 16 17 18 19 20 21 22 23 24 25 26 27 28 29 30 31 32 33 34 35 36 37 38 39 40 41 42 43 44 45 46 47 48 49 50
000
ASUS45 KSLC 182310
RWRUT

UTAH REGIONAL WEATHER ROUNDUP
NATIONAL WEATHER SERVICE SALT LAKE CITY UT
500 PM MDT SAT APR 18 2015

UTZ001>011-023>025-190000-

NORTHERN UTAH

CITY           SKY/WX    TMP DP  RH WIND       PRES   REMARKS
BRIGHAM CITY   MOSUNNY   67  30  24 SW7       29.96S
HILL AFB       SUNNY     65  34  32 SW8       29.98F
LOGAN          MOSUNNY   68  27  21 N20G25    29.95F
OGDEN          SUNNY     66  33  29 SW10      29.97F
PROVO AIRPORT  MOSUNNY   64  37  36 W15       29.97F
SALT LAKE CITY MOSUNNY   66  31  27 NW10      29.98F
VERNAL         MOSUNNY   66  25  21 N20G28    29.91F
WENDOVER       PTSUNNY   72  23  16 W8        29.98S
HEBER CITY     MOSUNNY   64  27  24 NW12G20   29.98R
WEST JORDAN    SUNNY     64  32  29 N9G20     30.00F

$$

UTZ012>022-026-027-190000-

SOUTHERN/CENTRAL UTAH

CITY           SKY/WX    TMP DP  RH WIND       PRES   REMARKS
BLANDING       SUNNY     61  29  30 N13G20    30.03F
BRYCE CANYON   MOSUNNY   59  19  21 NW18G28   30.07S
CEDAR CITY     SUNNY     67  13  12 NE10G21   30.00F
DELTA          SUNNY     70  15  12 NW20      29.98S
HANKSVILLE     PTSUNNY   73  25  16 NW22      29.90S
MILFORD        SUNNY     71  17  12 N14G21    29.99F
MOAB/CYNLANDS  PTSUNNY   60  42  51 SE12      29.91R
PRICE          CLOUDY    56  31  38 NW38G53   29.94R
ST GEORGE      PTCLDY    81  25  12 S12G22    29.89F
KANAB          PTSUNNY   73  19  13 W15G23    29.97F

$$

REGIONAL REPORTS     COLORADO/ARIZONA

CITY           SKY/WX    TMP DP  RH WIND       PRES   REMARKS
CRAIG, CO      LGT RAIN  35  33  92 W6        30.01R WCI  30
GRAND JUNCTION PTSUNNY   45  39  79 E12       30.00R
RIFLE          LGT SNOW  34  32  92 CALM      30.03S FOG
MONTROSE       CLOUDY    41  36  82 CALM      30.04R
CORTEZ         PTSUNNY   57  34  41 NW13G20   29.97F
PAGE, AZ       MOSUNNY   75  20  12 W7        29.89F
GRAND CANYON   SUNNY     64  12  13 NW12G20   30.05F
KINGMAN        SUNNY     81  14   8 W12       29.93F
FLAGSTAFF      SUNNY     62  10  13 NW10G18   30.06F

$$

REGIONAL REPORTS    NEVADA/IDAHO/WYOMING

CITY           SKY/WX    TMP DP  RH WIND       PRES   REMARKS
LAS VEGAS, NV  MOSUNNY   85  14   7 S7        29.82F
ELY            MOSUNNY   63  18  17 N14       30.05F
ELKO           SUNNY     69  17  13 NW17      30.05F
POCATELLO, ID  SUNNY     69  23  17 W12G18    29.99F
BURLEY         SUNNY     67  25  20 W9G21     30.01S
EVANSTON, WY   MOSUNNY   59  22  24 NW23G31   30.02S
ROCK SPRINGS   PTSUNNY   56  26  31 NE24G33   29.95F
KEMMERER       MOSUNNY   59  18  20 NW15G23   30.00S

$$



USA.gov is the U.S. government's official web portal to all federal, state and local government web resources and services.